Location: Asheville, NC
(35.6000°N, 82.5500°W)
Time: 19:30:25
(UTC-04:00)

Vanguard 1 - Pass Details

Date: 13 February 2018
Orbit: 650 x 3833 km, 34.3° (Epoch: 26 May)

Event Time Altitude Azimuth Distance (km) Brightness Sun altitude
Rises 18:37:22 0° 259° (W) 4,283 16.3 -6.2°
Reaches altitude 10° 18:40:50 10° 258° (WSW) 2,913 14.3 -6.9°
Maximum altitude 18:47:13 74° 174° (S) 802 9.6 -8.1°
Enters shadow 18:51:33 11° 90° (E) 2,011 11.0 -9.0°
Drops below altitude 10° 18:51:42 10° 89° (E) 2,075 - -9.0°
Sets 18:53:49 0° 88° (E) 2,952 - -9.5°
